Location: Darmstadt
(49.8706°N, 8.6494°E)
Time: 06:24:23
(UTC+01:00)

NOSS 3-4 (C) - Pass Details

Date: 31 October 2020
Orbit: 884 x 1328 km, 63.4° (Epoch: 28 November)

Event Time Altitude Azimuth Distance (km) Brightness Sun altitude
Rises 19:13:44 0° 316° (NW) 3,784 7.3 -21.4°
Reaches altitude 10° 19:16:14 10° 316° (NW) 2,887 6.6 -21.8°
Maximum altitude 19:23:09 84° 229° (SW) 1,159 3.8 -22.9°
Enters shadow 19:27:41 27° 144° (SE) 2,127 4.9 -23.6°
